Location: Newark
(51.1667°N, 4.4833°E)
Time: 21:54:33
(UTC+00:00)

UWE-3 - Visible Passes

Search period start: 05 December 2019 00:00
Search period end: 15 December 2019 00:00
Orbit: 586 x 682 km, 97.6° (Epoch: 05 December)

Date Brightness Start Highest point End Pass type
(mag) Time Alt. Az. Time Alt. Az. Time Alt. Az.
05 Dec ? 04:24:22 10° NE 04:27:32 19° E 04:30:37 10° SE visible
05 Dec ? 05:59:55 10° N 06:04:23 60° WNW 06:08:42 10° SSW visible
05 Dec ? 17:01:10 10° S 17:05:37 43° W 17:10:05 10° NNW visible
06 Dec ? 04:45:29 10° NNE 04:49:24 28° E 04:53:11 10° SSE visible
06 Dec ? 06:21:45 10° N 06:25:56 38° WNW 06:29:59 10° SW visible
06 Dec ? 17:23:23 10° SSW 17:27:24 28° W 17:31:27 10° NNW visible
07 Dec ? 05:06:52 10° NNE 05:11:11 44° E 05:15:21 10° S visible
07 Dec ? 06:43:42 10° N 06:47:24 26° WNW 06:51:01 10° WSW visible
07 Dec ? 16:07:47 10° SSE 16:12:25 66° ENE 16:17:03 10° N visible
07 Dec ? 17:46:01 10° SW 17:49:17 19° W 17:52:33 10° NW visible
08 Dec ? 05:28:25 10° NNE 05:32:54 71° ESE 05:37:13 10° S visible
08 Dec ? 16:29:23 10° SSE 16:34:04 81° WSW 16:38:44 10° NNW visible
08 Dec ? 18:09:27 10° WSW 18:11:13 12° W 18:12:59 10° WNW visible
09 Dec ? 04:14:58 10° NE 04:17:33 15° E 04:20:05 10° ESE visible
09 Dec ? 05:50:05 10° N 05:54:33 73° WNW 05:58:51 10° SSW visible
09 Dec ? 16:51:12 10° S 16:55:45 52° W 17:00:19 10° NNW visible
10 Dec ? 04:35:53 10° NE 04:39:27 23° E 04:42:55 10° SE visible
10 Dec ? 06:11:52 10° N 06:16:07 46° WNW 06:20:14 10° SW visible
10 Dec ? 17:13:18 10° SSW 17:17:31 33° W 17:21:44 10° NNW visible
11 Dec ? 04:57:10 10° NNE 05:01:16 36° E 05:05:14 10° SSE visible
11 Dec ? 06:33:45 10° N 06:37:37 30° WNW 06:41:22 10° SW visible
11 Dec ? 17:35:44 10° SW 17:39:21 22° W 17:42:58 10° NW visible
12 Dec ? 05:18:38 10° NNE 05:23:01 58° E 05:27:13 10° S visible
12 Dec ? 06:55:49 10° NNW 06:59:03 20° WNW 07:02:13 10° WSW visible
12 Dec ? 16:19:33 10° SSE 16:24:14 85° ENE 16:28:52 10° NNW visible
12 Dec ? 17:58:44 10° WSW 18:01:15 14° W 18:03:46 10° NW visible
13 Dec ? 04:05:47 10° ENE 04:07:32 12° E 04:09:16 10° ESE visible
13 Dec ? 05:40:15 10° NNE 05:44:41 88° WNW 05:48:57 10° SSW visible
13 Dec ? 16:41:17 10° S 16:45:54 62° W 16:50:30 10° NNW visible
14 Dec ? 04:26:19 10° NE 04:29:28 19° E 04:32:32 10° SE visible
14 Dec ? 06:01:58 10° N 06:06:17 55° WNW 06:10:25 10° SSW visible
14 Dec ? 17:03:15 10° SSW 17:07:38 40° W 17:11:58 10° NNW visible
